EGJJ

Jersey Airport

Airport
ICAO code
EGJJ
IATA Code
JER
Summary
ICAO Region
EUR
ICAO Territory
Location

Saint Peter, Jersey

Serving
St Hellier
Elevation
277 ft
Coordinates
49° 12' 26" N , 2° 11' 41" W
KCC
Metar
EGJJ 040850Z 16019G29KT 130V190 9999 FEW020 07/04 Q1008

The only airport on the Channel Island of Jersey, a self-governing British Crown Dependency.

Runways

Designator Length Width Surface Rops
08/26 1706 46 ASP Yes/Yes

SKYbrary Partners:

Safety knowledge contributed by: